Total_Precipitation_Accumulation
2.42 2.70 2.85 3.07 3.36 3.59 3.78 4.03 4.42 4.52 4.26 4.17 4.06 3.91 3.58 3.42 3.12 2.75 2.43 2.31 2.29 2.41 2.77 2.54 2.76 2.72 2.80 2.82 2.86 3.10 3.17 2.87 2.95 2.86 2.39 1.84 1.46 1.43 1.43 1.43 1.46 1.33 1.38
2.25 2.52 2.53 2.76 2.96 3.40 3.84 4.16 4.14 4.04 3.76 3.80 4.04 4.23 4.16 3.70 3.15 2.80 2.62 2.28 2.19 2.25 2.39 2.53 2.42 2.48 2.60 2.63 2.67 2.87 2.81 2.48 2.62 2.78 2.75 2.12 1.76 1.39 1.08 1.36 1.42 1.35 1.53
1.80 2.11 2.14 2.22 2.40 2.84 3.29 3.39 3.27 3.19 3.03 3.06 3.36 3.52 3.69 3.46 3.08 2.76 2.49 2.25 2.13 2.06 2.12 2.24 2.26 2.27 2.18 2.35 2.52 2.46 2.45 2.33 2.27 2.45 2.72 2.37 1.94 1.58 1.16 1.02 1.12 1.33 1.49
1.64 1.79 1.84 1.88 1.91 1.99 2.23 2.39 2.49 2.55 2.57 2.61 2.78 2.90 2.98 2.89 2.76 2.66 2.39 2.13 1.89 1.81 1.83 1.86 1.87 1.92 1.94 2.17 2.01 2.01 2.21 2.29 2.16 2.21 2.21 2.17 2.19 2.05 1.48 1.10 1.04 1.25 1.35
1.37 1.48 1.54 1.54 1.57 1.64 1.87 2.09 2.29 2.42 2.52 2.48 2.51 2.65 2.88 2.82 2.59 2.39 2.23 2.05 1.86 1.70 1.62 1.67 1.67 1.65 1.67 1.79 1.82 2.05 2.06 2.10 2.07 2.03 2.00 2.07 2.09 1.97 1.78 1.42 1.28 1.25 1.10
1.12 1.29 1.40 1.45 1.45 1.51 1.70 1.91 2.04 2.05 2.12 2.18 2.19 2.19 2.28 2.30 2.17 2.02 1.92 1.76 1.60 1.51 1.51 1.52 1.53 1.50 1.53 1.67 1.72 1.78 1.78 1.83 1.86 1.82 1.79 1.92 1.86 1.78 1.86 1.60 1.46 1.41 1.15
0.94 1.07 1.26 1.28 1.39 1.49 1.58 1.65 1.70 1.69 1.65 1.69 1.65 1.63 1.72 1.87 1.87 1.76 1.72 1.62 1.41 1.27 1.26 1.34 1.38 1.36 1.40 1.54 1.59 1.55 1.57 1.65 1.68 1.63 1.67 1.76 1.70 1.68 1.82 1.88 1.70 1.56 1.29
0.68 0.77 0.90 1.02 1.12 1.25 1.32 1.35 1.36 1.40 1.45 1.48 1.56 1.54 1.56 1.67 1.75 1.75 1.63 1.54 1.32 1.17 1.18 1.22 1.24 1.26 1.30 1.33 1.50 1.53 1.54 1.60 1.62 1.56 1.77 1.72 1.55 1.57 1.71 1.91 2.06 1.95 1.62
0.63 0.65 0.72 0.81 0.79 0.87 0.94 0.98 1.05 1.18 1.31 1.33 1.45 1.41 1.41 1.51 1.64 1.67 1.63 1.58 1.50 1.40 1.38 1.32 1.30 1.35 1.41 1.48 1.60 1.66 1.63 1.69 1.69 1.74 1.84 1.71 1.56 1.53 1.60 1.88 2.11 2.24 2.00
0.56 0.59 0.58 0.57 0.54 0.63 0.80 0.87 1.04 1.13 1.15 1.14 1.10 1.06 1.19 1.37 1.50 1.51 1.44 1.52 1.55 1.55 1.52 1.48 1.42 1.39 1.44 1.57 1.67 1.71 1.70 1.74 1.79 1.82 1.89 1.91 1.78 1.77 1.76 1.90 2.08 2.22 2.26
0.53 0.52 0.55 0.55 0.51 0.56 0.73 0.79 0.86 1.02 1.08 1.02 0.96 0.93 0.98 1.10 1.20 1.25 1.27 1.37 1.45 1.49 1.42 1.34 1.31 1.29 1.30 1.33 1.39 1.39 1.42 1.45 1.52 1.53 1.63 1.77 1.90 1.89 1.86 1.92 1.98 2.11 2.28
0.45 0.41 0.47 0.52 0.58 0.71 0.77 0.72 0.74 0.79 0.91 0.94 0.90 0.89 0.92 0.91 0.90 0.94 1.03 1.11 1.19 1.21 1.11 1.13 1.12 1.07 1.03 1.05 1.05 1.06 1.15 1.26 1.34 1.42 1.49 1.45 1.52 1.59 1.64 1.74 1.88 2.02 2.22
0.46 0.44 0.52 0.53 0.57 0.71 0.83 0.74 0.73 0.76 0.86 0.87 0.88 0.91 0.90 0.86 0.80 0.81 0.87 0.89 0.89 0.90 0.86 0.92 0.95 0.92 0.90 0.88 0.89 0.95 1.04 1.12 1.18 1.24 1.25 1.20 1.22 1.28 1.39 1.46 1.60 1.79 2.05
0.40 0.41 0.50 0.62 0.64 0.62 0.71 0.68 0.66 0.73 0.82 0.93 1.05 1.02 0.92 0.86 0.83 0.82 0.81 0.80 0.76 0.77 0.80 0.84 0.86 0.89 0.92 0.96 1.05 1.11 1.12 1.12 1.06 1.00 0.97 0.96 1.04 1.12 1.24 1.33 1.38 1.51 1.74
0.38 0.38 0.44 0.58 0.66 0.66 0.67 0.63 0.66 0.70 0.73 0.86 0.99 1.02 1.03 1.01 0.97 0.89 0.80 0.79 0.78 0.71 0.78 0.89 0.93 0.98 0.99 0.91 1.00 1.09 1.08 1.09 1.03 0.92 0.80 0.75 0.82 0.89 1.00 1.02 1.19 1.36 1.54
0.44 0.44 0.39 0.41 0.51 0.58 0.60 0.59 0.58 0.59 0.65 0.73 0.82 0.95 1.05 1.04 0.99 0.89 0.85 0.86 0.83 0.84 0.85 0.83 0.86 0.86 0.73 0.76 0.86 0.95 0.97 0.99 0.98 0.91 0.80 0.70 0.70 0.74 0.83 0.90 0.98 1.11 1.29
0.33 0.32 0.32 0.33 0.36 0.40 0.46 0.59 0.57 0.55 0.62 0.71 0.76 0.89 1.00 1.01 0.97 0.87 0.85 0.84 0.83 0.88 0.94 0.89 0.85 0.82 0.81 0.82 0.80 0.79 0.85 0.92 0.89 0.90 0.90 0.75 0.63 0.73 0.76 0.83 0.84 0.92 1.02
0.26 0.22 0.22 0.24 0.28 0.31 0.35 0.45 0.56 0.62 0.65 0.72 0.78 0.86 0.92 0.99 1.03 1.01 0.95 0.97 0.98 0.95 0.96 0.96 0.92 0.98 0.96 0.85 0.76 0.76 0.77 0.85 0.85 0.85 0.85 0.87 0.88 0.83 0.80 0.85 0.87 0.78 0.79
0.25 0.25 0.24 0.24 0.32 0.39 0.43 0.52 0.65 0.72 0.75 0.77 0.85 0.87 0.95 1.10 1.17 1.10 1.07 1.08 1.06 0.98 0.94 0.94 0.89 0.90 0.93 0.82 0.69 0.67 0.69 0.80 0.85 0.84 0.81 0.79 0.83 0.83 0.75 0.80 0.84 0.81 0.78
0.27 0.24 0.26 0.27 0.34 0.46 0.58 0.67 0.79 0.92 0.91 0.86 0.86 0.93 1.00 1.13 1.24 1.27 1.26 1.23 1.20 1.09 1.02 0.96 0.91 0.88 0.90 0.77 0.58 0.58 0.64 0.73 0.78 0.84 0.78 0.67 0.61 0.62 0.63 0.73 0.82 0.79 0.77
0.31 0.29 0.32 0.35 0.41 0.47 0.65 0.83 0.89 0.95 0.98 0.97 0.96 1.04 1.12 1.26 1.43 1.55 1.53 1.50 1.43 1.35 1.26 1.14 1.07 1.04 0.99 0.84 0.62 0.58 0.62 0.74 0.82 0.82 0.77 0.73 0.63 0.61 0.63 0.68 0.75 0.78 0.83
0.33 0.38 0.46 0.50 0.47 0.47 0.62 0.80 0.88 0.92 1.01 1.05 1.12 1.18 1.29 1.31 1.42 1.77 1.80 1.80 1.78 1.59 1.47 1.36 1.27 1.24 1.17 0.97 0.76 0.63 0.66 0.79 0.91 0.93 0.89 0.87 0.74 0.66 0.62 0.60 0.64 0.71 0.74
0.36 0.41 0.51 0.61 0.66 0.71 0.79 0.92 0.95 1.03 1.12 1.23 1.33 1.37 1.41 1.52 1.60 1.73 1.79 1.82 1.81 1.72 1.59 1.48 1.35 1.32 1.31 1.21 0.95 0.82 0.80 0.87 0.91 0.97 1.00 0.90 0.80 0.76 0.74 0.75 0.80 0.84 0.85
0.42 0.46 0.51 0.71 0.87 0.94 0.97 1.02 1.08 1.21 1.37 1.49 1.60 1.65 1.64 1.62 1.67 1.80 1.80 1.80 1.78 1.73 1.65 1.60 1.49 1.46 1.53 1.46 1.34 1.23 1.16 1.16 1.15 1.13 1.13 1.01 0.90 0.85 0.85 0.82 0.79 0.80 0.87
0.51 0.57 0.65 0.77 0.83 0.96 1.11 1.21 1.35 1.51 1.59 1.60 1.63 1.65 1.71 1.81 1.87 1.85 1.83 1.85 1.87 1.80 1.77 1.77 1.79 1.75 1.73 1.62 1.52 1.49 1.48 1.54 1.55 1.48 1.44 1.37 1.26 1.13 1.07 1.03 1.00 0.99 1.00
0.60 0.68 0.78 0.91 0.99 1.13 1.29 1.37 1.51 1.71 1.86 1.82 1.74 1.77 1.81 1.89 1.92 1.91 1.83 1.80 1.73 1.63 1.55 1.59 1.61 1.55 1.55 1.54 1.42 1.40 1.44 1.51 1.52 1.47 1.46 1.51 1.51 1.41 1.34 1.27 1.21 1.18 1.13